Theta_e
301 301 301 302 302 302 303 304 306 311 314 314 310 305 306 310 311 312 315 316 316 318 319 318 318 319 319 319 320 322 321 321 320 322 322 323 327 331 334 330 333 331 336 337 337 337 338 335 337 340 343 339 337 337
300 301 301 302 302 302 302 303 305 309 313 313 310 304 305 310 311 312 314 314 314 316 318 316 317 316 317 317 320 319 322 322 321 322 327 326 326 328 329 332 333 336 331 334 335 338 336 335 339 339 337 336 337 337
300 300 301 301 301 302 302 302 305 308 313 313 310 303 304 309 311 312 313 314 313 315 316 317 318 317 316 316 316 318 319 320 321 320 326 326 328 326 328 331 332 330 330 331 333 333 335 335 334 336 333 334 335 334
300 300 300 301 301 302 302 302 304 308 313 313 307 304 305 310 311 311 312 314 313 315 318 319 317 316 316 316 316 316 317 318 317 321 320 322 323 325 323 326 326 328 328 330 327 329 334 335 334 335 335 332 331 330
300 300 300 300 301 301 302 302 304 308 312 312 305 303 306 309 311 312 313 313 314 315 321 321 318 317 316 316 316 315 316 318 319 318 318 319 319 321 322 323 324 327 329 328 327 332 335 335 332 334 333 333 331 331
301 300 300 300 301 301 302 302 303 308 311 310 302 303 306 309 311 311 316 314 314 312 317 320 318 318 314 313 314 316 316 318 318 318 318 318 318 319 321 323 326 327 328 324 324 330 332 330 326 328 330 333 328 326
300 301 300 300 301 301 302 302 304 309 311 303 303 309 309 311 312 314 315 311 314 314 316 319 319 318 314 316 317 317 316 317 317 318 318 318 318 320 321 320 320 321 323 323 324 332 331 335 334 328 330 329 326 328
300 301 300 300 300 301 302 302 305 310 307 301 309 310 310 312 311 313 314 312 312 314 315 318 318 317 315 318 318 317 317 317 317 317 318 319 319 320 321 320 320 320 321 323 326 332 329 327 331 329 329 326 326 327
300 301 300 300 301 301 302 302 308 309 302 308 309 311 310 311 313 314 313 311 311 313 316 317 318 321 318 320 319 316 317 318 318 319 319 320 321 321 321 323 322 323 324 328 329 330 328 328 328 329 327 326 326 327
301 301 301 300 301 302 302 304 307 304 309 309 311 310 314 313 311 310 311 315 313 315 316 318 318 319 318 318 320 319 318 319 321 321 320 322 321 326 329 330 330 327 325 326 329 328 329 328 328 330 328 326 326 327
301 301 301 301 301 302 302 306 304 309 309 310 312 314 311 311 311 311 314 315 316 317 317 317 317 318 317 319 319 320 327 322 323 322 321 322 331 334 332 330 330 329 327 325 329 330 328 327 326 331 328 327 327 327
302 302 301 301 301 302 305 304 305 308 309 312 312 311 310 313 314 315 316 316 316 317 316 316 317 317 318 318 320 320 323 326 325 327 328 327 331 330 332 331 330 327 324 325 328 329 327 327 325 326 326 327 328 329
302 301 301 301 302 304 305 303 307 310 311 311 313 313 315 314 317 316 317 317 318 318 318 318 320 318 318 317 319 320 325 323 325 327 330 333 330 330 331 332 332 330 329 328 327 327 327 326 327 327 329 328 328 327
301 301 301 302 306 307 304 305 308 310 309 312 315 321 317 317 317 317 318 317 319 319 320 320 320 318 317 317 319 320 321 325 328 327 330 330 330 330 330 329 330 332 329 329 328 327 327 328 328 328 327 326 324 323
301 302 303 305 306 303 303 306 309 310 310 315 316 322 317 316 316 316 317 318 319 319 320 320 320 319 318 319 319 321 323 321 326 330 330 331 328 328 329 329 329 329 328 327 326 326 325 324 324 323 322 322 322 323
303 304 305 304 303 304 305 307 309 310 310 315 316 318 316 317 317 317 318 319 319 320 320 320 321 318 318 319 323 320 321 326 328 324 325 328 326 326 326 325 326 326 325 325 325 323 322 323 323 324 323 323 323 323
304 305 304 302 302 305 306 308 308 309 313 315 316 316 318 318 318 317 319 319 319 320 319 319 318 316 319 318 323 324 326 325 324 323 323 327 327 326 326 325 325 324 324 324 324 323 323 323 323 323 326 324 323 322
305 302 303 303 304 307 307 307 309 312 315 315 315 316 317 318 318 318 319 319 321 322 321 322 320 317 319 320 323 321 322 322 320 322 322 325 325 324 324 324 324 323 322 321 323 324 323 324 324 325 323 324 324 322
305 304 307 306 307 306 307 308 309 315 315 315 316 317 317 317 317 317 318 319 319 319 321 320 321 322 322 320 320 319 318 318 319 320 324 325 323 322 322 322 323 323 324 324 325 324 323 324 323 323 321 321 321 319
304 304 306 305 306 310 311 312 311 314 313 315 315 316 316 317 317 317 317 318 319 319 318 319 320 320 318 319 318 318 320 320 320 323 326 323 322 322 322 324 324 322 323 323 322 323 323 324 321 321 320 319 319 319
304 304 304 305 310 310 310 312 312 313 313 314 315 316 316 317 317 317 317 317 318 318 318 318 318 322 321 320 318 320 322 322 325 325 325 323 321 322 322 320 320 322 321 321 321 322 320 319 319 318 318 318 318 318
305 304 306 307 310 310 311 311 312 312 314 314 314 315 316 316 316 316 317 317 316 318 318 319 319 320 317 321 321 321 322 322 322 322 320 320 323 323 322 320 321 324 323 320 319 319 319 318 318 317 318 318 318 318
305 307 308 308 309 312 313 313 313 314 314 314 315 315 315 315 315 316 316 315 316 319 319 318 319 319 319 319 320 320 321 322 321 323 323 322 321 318 320 321 320 320 319 319 318 318 318 319 318 319 318 319 319 319
306 308 310 310 310 311 312 313 313 314 314 314 314 314 315 319 316 316 315 316 317 319 319 320 318 318 319 320 319 319 320 320 319 319 320 321 320 319 322 319 318 319 319 319 319 319 319 319 319 319 318 319 319 318
307 309 310 308 310 311 312 313 313 314 314 314 314 315 317 315 316 316 317 322 319 319 319 321 320 320 321 320 322 321 321 322 319 323 320 320 320 319 319 318 318 318 317 317 317 318 318 318 318 319 318 318 318 318
309 310 310 310 311 312 312 313 314 314 314 314 315 317 317 317 316 315 315 317 318 318 319 321 322 321 324 322 324 322 321 320 320 321 319 317 317 316 317 317 317 315 314 315 315 315 316 316 317 317 317 318 318 318
310 310 310 311 313 313 313 313 313 313 315 318 318 317 315 314 313 314 316 317 319 319 320 321 320 320 321 320 320 320 320 321 321 321 317 316 315 315 314 314 313 310 311 312 311 311 312 312 313 313 313 315 314 313
310 311 311 313 314 313 313 314 315 317 316 316 316 316 315 315 319 319 321 321 320 320 320 319 320 320 320 320 320 319 320 320 320 319 318 316 314 312 312 311 310 309 309 308 307 308 307 307 308 308 309 309 309 309
311 311 312 314 313 314 315 316 315 314 313 313 313 315 317 315 314 318 318 318 319 321 320 318 318 317 314 314 315 315 314 314 315 316 316 315 314 312 310 309 308 308 307 307 305 305 304 305 306 306 306 307 306 305
311 311 312 313 313 314 314 314 314 313 312 312 313 313 314 313 313 315 318 318 319 320 319 316 315 313 312 314 314 313 313 312 312 312 313 313 311 309 308 308 307 307 306 306 306 306 305 306 306 306 306 305 304 303
311 312 313 314 314 312 311 311 312 313 313 314 314 314 313 313 314 313 314 313 313 313 313 314 313 313 313 313 313 313 313 311 310 310 308 309 308 307 307 306 306 306 306 306 306 305 304 305 305 304 304 303 301 300
310 312 315 314 313 312 312 314 316 317 316 315 316 315 314 315 315 313 312 313 313 313 311 312 313 312 311 311 311 310 307 307 305 305 304 305 305 304 304 305 305 305 305 305 305 304 303 303 302 301 300 299 298 297
316 317 316 317 316 317 318 317 317 317 317 318 317 315 314 314 314 313 312 311 311 311 312 312 312 311 310 309 309 309 307 304 302 301 301 301 300 300 301 301 303 304 304 304 303 302 301 300 299 299 298 297 296 296
Wind_Speed
19 19 19 18 18 17 16 16 18 15 15 17 15 15 14 13 12 9 5 7 10 8 13 12 12 11 9 7 7 4 8 10 7 9 9 11 7 6 4 4 8 6 6 3 7 11 7 17 11 6 5 8 7 7
20 19 19 19 18 17 17 16 17 16 13 16 15 14 13 15 13 11 8 6 7 9 12 19 16 17 16 15 10 6 9 5 5 6 5 4 5 5 6 7 10 5 4 7 5 5 8 8 5 6 7 4 4 3
20 19 19 18 19 17 16 17 18 16 13 16 15 15 14 17 15 15 9 3 8 8 13 17 13 18 20 22 19 10 8 7 5 5 6 5 3 8 5 6 6 9 3 4 9 4 7 3 2 4 2 4 3 3
20 20 18 18 19 18 17 17 18 16 13 16 15 15 14 18 16 15 10 6 7 7 5 2 2 5 8 8 12 16 18 3 7 7 8 7 8 1 9 4 8 4 7 6 3 5 7 5 3 5 15 5 3 7
21 19 19 18 19 18 17 17 17 16 13 17 15 15 14 18 14 13 10 11 7 7 5 8 17 16 6 9 12 15 14 11 7 7 7 9 9 9 7 12 8 1 2 6 7 6 4 4 2 7 8 11 6 9
22 20 19 19 18 17 16 17 16 14 14 17 15 14 14 18 15 8 4 13 14 7 4 4 3 6 6 6 10 13 11 7 8 7 6 8 13 6 7 10 8 13 20 6 6 4 8 8 4 8 10 4 7 12
22 21 20 19 18 17 15 15 15 13 15 15 13 15 19 16 17 7 3 3 7 10 4 4 3 7 5 5 8 7 9 6 6 7 9 9 10 5 8 11 13 12 11 5 2 3 5 16 8 13 1 2 9 10
21 21 19 19 18 16 15 13 14 14 17 16 15 16 15 12 12 10 8 2 8 8 6 4 4 5 11 6 6 6 6 6 6 7 7 7 7 6 7 9 7 5 4 6 6 9 2 3 8 8 5 4 6 8
21 21 19 17 17 16 14 13 13 18 19 19 17 15 12 6 5 4 8 5 6 6 4 4 8 3 7 7 4 5 6 7 6 8 10 8 9 6 6 4 7 4 2 2 7 7 5 7 5 2 1 2 2 6
21 21 20 17 16 15 14 15 17 23 23 22 17 5 3 9 8 11 6 5 5 4 5 8 8 5 4 7 7 5 6 7 6 8 9 7 9 7 11 6 8 10 9 7 8 8 10 8 5 6 5 1 5 6
21 20 18 16 16 15 16 18 26 26 25 9 6 2 5 16 10 4 3 4 6 5 5 7 9 7 5 5 3 4 3 3 7 3 8 6 4 8 10 6 5 7 8 8 7 4 3 6 4 9 6 6 3 1
20 20 18 18 17 17 18 32 31 28 15 11 9 11 7 5 3 5 5 5 5 5 6 7 7 7 2 2 4 2 5 3 1 3 7 3 4 7 9 7 5 2 6 7 6 1 1 2 2 2 2 0 1 2
20 19 18 17 18 22 29 34 34 19 17 14 4 6 5 5 3 7 9 5 4 5 5 6 7 5 4 5 4 2 4 4 6 5 3 4 3 4 7 11 9 8 5 4 3 3 5 3 0 2 5 2 2 5
19 18 17 19 21 25 35 30 35 21 5 2 4 3 5 5 7 6 7 6 4 3 8 5 4 5 3 5 5 4 6 5 8 1 4 3 2 3 5 5 8 10 9 9 8 7 7 7 6 5 5 3 5 6
18 18 18 19 26 32 30 34 24 10 3 4 3 4 8 7 5 4 3 2 4 1 3 5 3 3 6 3 3 1 4 3 5 4 6 5 4 4 3 6 6 5 5 8 9 7 5 3 1 2 3 3 2 2
21 21 14 27 31 29 33 21 12 3 2 3 6 6 6 7 6 6 7 4 4 5 2 2 4 3 4 4 3 4 5 4 1 3 7 5 2 3 5 6 4 3 3 3 3 3 3 3 2 1 2 2 3 3
19 6 27 33 31 29 22 5 3 1 4 3 3 4 2 2 5 2 4 6 2 6 4 3 3 4 3 3 3 2 1 2 2 3 4 4 3 6 5 6 3 3 5 9 6 6 1 3 4 6 1 6 7 7
13 30 31 31 29 21 4 4 4 4 4 5 1 5 4 1 4 5 3 3 3 5 6 2 4 3 2 3 6 3 5 4 2 5 4 4 5 8 10 5 5 2 5 11 20 7 5 5 5 4 5 3 6 11
32 32 30 28 13 6 3 1 3 3 5 3 4 6 3 3 3 1 2 2 1 3 3 1 1 2 4 4 5 9 8 6 6 5 7 5 5 5 6 5 6 6 4 8 15 13 2 3 4 5 8 8 9 12
36 37 27 21 7 3 5 4 4 4 2 3 3 4 0 5 3 2 2 1 3 3 2 2 2 3 3 7 6 6 6 5 5 5 3 2 6 7 8 4 1 3 4 6 8 18 4 5 10 13 4 11 10 13
26 22 16 6 2 2 1 3 2 3 2 2 4 4 3 5 4 2 2 1 2 2 1 4 4 9 8 7 7 9 7 5 4 4 4 3 6 7 6 6 8 6 4 7 13 7 7 10 9 9 11 10 12 15
24 21 8 3 1 1 1 2 2 2 3 4 4 3 3 5 4 3 2 3 2 0 3 3 8 7 5 5 6 6 5 5 3 2 2 3 4 4 5 7 9 7 10 8 10 4 5 7 6 11 13 14 16 17
17 6 4 2 1 2 1 4 2 1 2 5 4 3 2 2 1 2 3 1 3 1 5 5 5 3 4 3 3 3 3 3 1 3 3 3 5 2 9 9 6 5 4 3 6 8 6 7 10 6 15 20 13 12
2 1 1 1 3 2 3 3 1 2 3 3 3 3 2 3 0 4 3 1 5 6 5 5 6 5 6 6 6 3 4 3 3 6 3 2 3 6 10 3 9 11 12 15 15 15 12 7 13 15 16 16 9 11
2 5 2 3 1 3 4 5 4 4 4 3 2 2 2 2 2 1 2 4 7 6 6 6 6 5 6 4 5 7 4 3 8 3 13 18 10 9 3 10 8 17 14 12 11 12 12 11 13 14 15 11 13 17
4 2 2 2 2 3 4 4 4 4 4 2 2 2 3 5 7 4 4 3 3 3 2 3 1 2 4 6 6 4 6 10 7 4 7 11 12 10 7 6 6 12 14 14 16 16 16 15 18 18 19 20 20 17
2 3 2 1 1 2 2 4 3 2 5 6 4 4 3 0 3 3 3 4 2 3 5 8 10 10 7 7 4 6 5 8 6 2 8 10 11 12 12 10 10 13 14 13 16 17 18 19 16 15 12 10 13 12
2 4 5 6 3 1 4 5 4 4 3 3 3 3 2 3 3 4 3 7 1 2 5 7 8 10 9 7 6 9 6 8 1 3 3 5 5 11 12 12 11 12 11 9 13 13 15 16 15 16 16 15 16 15
1 2 3 3 4 5 4 4 3 3 3 2 2 1 0 1 3 4 6 10 14 13 12 14 14 13 11 10 9 9 8 11 10 5 9 6 10 12 14 14 14 14 14 14 7 11 14 12 11 13 15 15 14 16
3 3 1 4 5 5 5 5 4 3 2 2 1 2 2 2 5 7 10 14 10 11 10 13 12 9 2 3 6 5 10 13 14 14 9 8 11 13 14 15 15 14 14 14 14 15 16 15 12 13 15 15 16 16
3 2 2 4 4 3 3 3 6 8 3 2 2 1 2 1 6 15 16 14 12 10 9 9 11 12 12 12 12 12 11 13 12 13 13 13 13 14 14 14 14 14 14 13 13 13 15 14 14 13 13 14 14 15
1 2 3 4 4 2 1 2 3 3 5 5 6 6 4 5 7 5 10 9 9 10 9 10 10 10 11 11 10 9 10 11 11 12 13 13 13 14 15 14 14 12 12 11 10 11 13 13 12 13 13 13 14 15
5 8 9 5 5 6 6 5 3 4 3 3 4 3 7 6 6 4 7 7 8 9 9 8 8 9 9 10 9 6 7 7 9 12 14 14 15 13 13 12 11 10 10 10 10 10 11 11 12 12 13 13 15 16
Wind_Direction
277 272 270 272 276 282 289 275 246 251 251 246 240 234 226 219 213 210 259 238 263 281 283 286 273 270 263 240 270 44 276 198 259 250 263 268 275 45 285 278 272 298 284 338 328 300 293 350 326 342 37 48 43 18
271 270 266 268 270 275 285 276 250 246 248 241 231 229 225 213 209 203 258 241 247 262 288 306 283 281 264 273 286 285 300 297 329 292 343 316 294 333 319 305 340 265 340 327 325 298 339 348 349 35 32 73 60 354
264 267 264 264 266 267 280 276 250 247 244 233 226 226 227 212 210 204 250 276 251 260 272 247 245 253 239 243 243 261 259 288 270 298 302 307 311 294 254 268 240 342 316 289 298 301 337 29 320 312 19 328 127 270
261 261 262 263 262 264 269 272 253 245 238 230 217 219 223 208 213 202 225 251 256 292 280 98 120 230 209 220 226 235 251 284 286 271 272 277 286 199 285 284 282 149 265 291 317 345 339 61 359 4 337 170 53 36
254 256 258 260 258 258 258 273 249 243 230 222 210 212 222 204 206 206 238 244 257 282 318 323 313 258 255 257 240 230 230 233 254 234 231 249 265 288 277 268 287 81 356 279 351 344 17 12 6 108 327 292 93 68
251 252 256 254 253 253 250 273 248 235 227 209 206 212 194 191 198 190 238 213 222 215 287 270 131 202 195 235 232 205 208 215 235 252 253 254 268 277 275 282 151 192 209 1 355 359 93 113 342 276 246 91 53 47
247 247 252 249 247 248 245 266 239 225 215 189 195 187 187 191 191 231 21 20 169 189 247 264 236 157 197 186 182 192 209 218 231 235 247 263 276 205 265 270 285 285 283 348 356 209 200 167 215 219 147 185 81 71
241 242 246 243 240 241 242 259 228 210 189 181 179 178 192 188 211 241 243 245 169 223 260 268 263 186 183 195 178 207 206 212 210 247 251 248 250 218 260 274 313 300 266 259 207 213 96 153 198 223 185 76 80 66
235 237 237 234 232 227 242 233 211 192 172 168 166 168 152 180 187 223 196 184 211 276 290 243 270 131 165 241 141 178 213 210 225 219 238 241 236 230 218 309 324 339 346 269 179 190 224 239 291 112 144 251 64 97
231 230 228 230 225 222 236 212 183 162 162 157 150 181 185 169 167 145 154 188 200 222 228 263 278 259 209 181 199 203 186 238 201 215 227 221 243 76 22 338 277 266 288 274 206 192 224 246 217 191 238 306 83 32
226 223 222 218 212 226 208 183 165 157 155 158 179 168 131 149 170 225 190 233 186 222 209 229 250 249 172 262 241 204 348 300 257 170 221 210 107 17 353 315 295 273 222 245 253 184 302 312 308 180 159 174 117 51
219 216 214 208 216 209 200 172 168 161 178 177 131 113 150 208 205 214 201 217 224 230 157 208 194 213 182 280 267 244 223 307 253 54 276 138 58 322 322 342 2 110 156 195 265 311 281 296 15 102 250 222 266 30
204 205 205 211 202 195 174 173 174 174 156 141 191 175 190 173 203 212 195 202 211 176 167 200 180 202 183 234 249 269 250 260 360 233 69 54 24 17 43 9 25 59 62 90 117 101 56 68 170 100 118 105 277 295
196 200 202 194 183 185 176 174 176 164 122 173 187 201 198 201 214 212 215 187 134 166 171 195 158 205 195 181 241 233 251 131 200 32 43 127 111 33 27 76 57 22 27 66 58 56 55 55 57 38 33 3 321 338
181 183 182 178 179 169 168 172 173 135 147 225 207 227 205 230 250 173 117 69 144 256 171 179 240 232 172 219 227 284 262 255 28 85 95 99 52 324 22 18 9 34 54 30 16 18 20 27 16 91 67 32 23 338
166 164 163 164 156 157 164 154 173 112 278 238 218 231 222 219 163 166 176 165 153 189 196 219 232 204 193 170 231 244 334 36 68 42 85 117 103 2 4 332 343 300 322 334 340 19 6 21 32 34 316 325 345 330
131 122 156 158 160 160 162 142 121 259 271 248 235 202 11 68 56 95 140 109 197 235 217 212 205 167 243 220 104 162 86 154 53 320 21 48 342 304 308 308 312 307 315 301 239 240 169 231 248 264 304 346 315 296
116 140 146 150 148 154 92 80 184 224 240 249 344 159 129 230 156 136 150 167 234 149 234 65 260 221 244 35 41 109 114 166 81 20 358 356 322 303 293 274 287 286 347 326 309 265 221 266 280 290 271 331 306 321
140 144 143 150 144 97 94 3 260 249 220 154 161 141 153 131 96 153 198 163 263 318 208 76 89 19 339 58 32 19 10 10 357 350 33 20 344 340 288 255 267 291 275 259 275 287 272 246 277 272 283 284 299 309
136 139 143 127 150 208 147 162 215 252 138 86 124 131 95 122 222 203 183 218 237 232 211 196 154 87 78 42 16 357 353 353 343 4 357 11 22 356 359 3 323 16 356 331 337 285 314 218 187 253 314 315 309 308
123 158 165 163 259 262 271 177 151 2 140 166 108 161 188 219 220 136 254 210 236 307 311 120 174 80 41 13 1 8 31 2 352 355 342 28 10 350 347 11 330 294 192 198 258 255 326 24 2 344 338 356 349 344
127 128 172 242 288 183 115 359 30 142 228 139 183 236 175 193 191 209 33 247 256 66 7 9 23 13 348 50 15 351 10 314 320 9 58 88 23 346 350 355 341 321 316 353 9 11 355 341 3 330 330 339 343 322
146 183 183 187 138 93 175 234 169 228 169 165 163 188 196 217 182 85 252 226 130 101 6 20 24 309 312 306 296 284 328 306 319 32 62 45 103 195 270 274 287 329 355 75 268 314 344 346 324 300 317 332 328 346
31 49 28 106 127 136 184 151 176 140 164 183 181 190 129 41 152 226 257 72 50 46 9 355 293 271 199 206 265 62 38 347 30 74 77 330 209 280 274 318 0 40 17 22 12 360 339 347 289 348 346 313 338 326
39 345 112 300 185 165 145 152 160 191 163 193 164 119 54 207 261 259 351 36 7 357 327 298 282 296 332 23 53 65 38 158 117 160 252 223 183 190 344 79 63 6 14 6 357 343 332 341 345 339 330 326 331 327
64 28 351 106 155 130 141 145 171 152 130 141 115 57 34 38 18 348 323 325 322 299 283 304 349 108 91 102 104 50 346 113 88 30 17 51 36 30 37 20 8 23 356 0 355 344 337 341 4 354 346 13 14 359
75 45 72 83 215 168 124 98 98 100 61 27 24 48 47 35 234 240 245 232 260 353 19 50 59 70 65 58 25 85 76 104 101 222 63 58 48 27 16 25 27 1 344 2 356 351 352 343 346 351 6 354 343 352
22 338 147 147 139 339 100 70 55 49 43 23 53 56 9 335 338 348 337 346 322 77 73 83 77 68 62 61 73 54 20 13 43 52 84 50 49 43 17 10 18 1 354 11 -0 3 359 347 351 346 346 348 354 354
130 82 42 151 140 80 48 32 68 58 27 51 88 125 271 334 270 293 325 57 78 88 80 66 53 66 59 50 61 62 46 12 26 17 354 22 26 15 11 7 4 3 3 1 24 36 20 352 355 5 360 0 7 349
70 12 344 44 53 60 46 32 76 80 56 73 90 144 98 18 357 5 87 107 100 95 77 84 97 88 108 50 76 81 50 37 25 13 10 18 20 13 5 3 2 1 1 359 358 1 6 354 9 359 10 4 14 1
115 98 67 39 66 55 60 58 74 84 50 55 32 123 183 199 74 42 33 49 46 65 78 79 62 39 36 37 23 7 29 37 31 29 12 8 20 12 2 357 358 357 357 356 2 10 2 359 11 8 18 14 13 7
112 103 113 107 98 110 266 161 185 153 172 191 180 185 168 107 82 56 18 14 45 70 46 35 43 46 21 18 25 47 38 33 28 28 22 19 12 2 352 351 352 355 355 360 8 20 13 11 19 15 13 12 5 3
163 142 128 139 155 187 188 166 120 126 144 114 85 62 70 77 66 64 53 46 33 16 14 24 17 35 37 20 22 50 77 80 63 48 30 23 20 20 12 5 360 1 2 12 12 17 18 15 16 12 9 5 1 357